Weather History for Glasgow, United Kingdom

Change the Weather History Date:

Saturday, October 5, 2013

  Actual Average Record
Temperature  
Mean Temperature 56 °F -  
Max Temperature 60 °F 52 °F 66 °F (2001)
Min Temperature 51 °F 41 °F 26 °F (1999)
Degree Days  
Heating Degree Days 10    
Growing Degree Days 6 (Base 50)    
Moisture  
Dew Point 52 °F    
Average Humidity 85    
Maximum Humidity 94    
Minimum Humidity 68    
Precipitation  
Precipitation 0.00 in - - ()
Sea Level Pressure  
Sea Level Pressure 30.00 in    
Wind  
Wind Speed 8 mph ()    
Max Wind Speed 17 mph    
Max Gust Speed -    
Visibility 6.2 miles    
Events      
Averages and records for this station are not official NWS values.
T = Trace of Precipitation, MM = Missing Value Source: Averaged Metar Reports

Daily Weather History Graph

Daily Weather History Graph

Search for Another Location

Airport:

Trip Planner

Search our weather history database for the weather conditions in past years. The results will help you decide how hot, cold, wet, or windy it might be!

Date:

Astronomy

Oct. 05, 2013 Rise Set
Actual Time 7:28 AM BST 6:42 PM BST
Civil Twilight 6:51 AM BST 7:19 PM BST
Nautical Twilight 6:08 AM BST 8:02 PM BST
Astronomical Twilight 5:24 AM BST 8:46 PM BST
Moon 8:03 AM BST (10/5) 6:37 PM BST (10/5)
Length of Visible Light 12h 27m
Length of Day
11h 13m
New Moon, 0% of the Moon is Illuminated
Oct 5
New Moon
Oct 12
First Quarter
Oct 19
Full
Oct 27
Last Quarter
Nov 3
New

Hourly Weather History & Observations

Time (BST) Temp. Dew Point Humidity Pressure Visibility Wind Dir Wind Speed Gust Speed Precip Events Conditions
12:20 AM 55.4 °F 51.8 °F 88% 29.83 in 6.2 mi West 8.1 mph - N/A   Partly Cloudy
12:50 AM 55.4 °F 51.8 °F 88% 29.83 in 6.2 mi West 5.8 mph - N/A   Overcast
1:20 AM 55.4 °F 51.8 °F 88% 29.86 in 6.2 mi WSW 6.9 mph - N/A   Mostly Cloudy
1:50 AM 53.6 °F 51.8 °F 94% 29.86 in 6.2 mi WSW 9.2 mph - N/A   Mostly Cloudy
2:20 AM 55.4 °F 51.8 °F 88% 29.86 in 6.2 mi WSW 9.2 mph - N/A   Mostly Cloudy
2:50 AM 53.6 °F 51.8 °F 94% 29.89 in 6.2 mi WSW 9.2 mph - N/A   Mostly Cloudy
3:20 AM 55.4 °F 51.8 °F 88% 29.89 in 6.2 mi West 6.9 mph - N/A   Mostly Cloudy
3:50 AM 53.6 °F 51.8 °F 94% 29.89 in 6.2 mi West 9.2 mph - N/A   Mostly Cloudy
4:20 AM 53.6 °F 51.8 °F 94% 29.92 in 6.2 mi West 9.2 mph - N/A   Mostly Cloudy
4:50 AM 53.6 °F 50.0 °F 88% 29.92 in 6.2 mi West 8.1 mph - N/A   Mostly Cloudy
5:20 AM 53.6 °F 50.0 °F 88% 29.92 in 6.2 mi West 6.9 mph - N/A   Mostly Cloudy
5:50 AM 51.8 °F 50.0 °F 94% 29.92 in 6.2 mi WSW 6.9 mph - N/A   Scattered Clouds
6:20 AM 51.8 °F 50.0 °F 94% 29.95 in 6.2 mi West 6.9 mph - N/A   Mostly Cloudy
6:50 AM 51.8 °F 50.0 °F 94% 29.95 in 6.2 mi WSW 3.5 mph - N/A   Mostly Cloudy
7:20 AM 51.8 °F 50.0 °F 94% 29.95 in 6.2 mi SW 6.9 mph - N/A   Mostly Cloudy
7:50 AM 53.6 °F 50.0 °F 88% 29.98 in 6.2 mi SW 9.2 mph - N/A   Mostly Cloudy
8:20 AM 53.6 °F 50.0 °F 88% 29.98 in 6.2 mi WSW 8.1 mph - N/A   Mostly Cloudy
8:50 AM 53.6 °F 51.8 °F 94% 29.98 in 6.2 mi WSW 6.9 mph - N/A   Mostly Cloudy
9:20 AM 53.6 °F 51.8 °F 94% 30.01 in 6.2 mi WSW 6.9 mph - N/A   Mostly Cloudy
9:50 AM 55.4 °F 51.8 °F 88% 30.01 in 6.2 mi SW 6.9 mph - N/A   Mostly Cloudy
10:20 AM 55.4 °F 51.8 °F 88% 30.01 in 6.2 mi WSW 8.1 mph - N/A   Mostly Cloudy
10:50 AM 57.2 °F 51.8 °F 82% 30.04 in 6.2 mi SW 10.4 mph - N/A   Mostly Cloudy
11:20 AM 57.2 °F 51.8 °F 82% 30.04 in 6.2 mi SW 11.5 mph - N/A   Mostly Cloudy
11:50 AM 57.2 °F 51.8 °F 82% 30.04 in 6.2 mi WSW 9.2 mph - N/A   Mostly Cloudy
12:20 PM 59.0 °F 51.8 °F 77% 30.04 in 6.2 mi WSW 12.7 mph - N/A   Mostly Cloudy
12:50 PM 59.0 °F 51.8 °F 77% 30.06 in 6.2 mi SW 10.4 mph - N/A   Mostly Cloudy
1:20 PM 59.0 °F 51.8 °F 77% 30.06 in 6.2 mi SW 11.5 mph - N/A   Mostly Cloudy
1:50 PM 59.0 °F 51.8 °F 77% 30.06 in 6.2 mi SW 12.7 mph - N/A   Mostly Cloudy
2:20 PM 60.8 °F 51.8 °F 72% 30.06 in 6.2 mi SW 12.7 mph - N/A   Scattered Clouds
2:50 PM 60.8 °F 51.8 °F 72% 30.06 in 6.2 mi SW 15.0 mph - N/A   Scattered Clouds
3:20 PM 60.8 °F 51.8 °F 72% 30.06 in 6.2 mi SW 13.8 mph - N/A   Mostly Cloudy
3:50 PM 60.8 °F 51.8 °F 72% 30.06 in 6.2 mi SW 15.0 mph - N/A   Mostly Cloudy
4:20 PM 60.8 °F 50.0 °F 68% 30.06 in 6.2 mi SW 17.3 mph - N/A   Scattered Clouds
4:50 PM 59.0 °F 50.0 °F 72% 30.06 in 6.2 mi SW 15.0 mph - N/A   Scattered Clouds
5:20 PM 59.0 °F 50.0 °F 72% 30.06 in 6.2 mi SW 9.2 mph - N/A   Mostly Cloudy
5:50 PM 57.2 °F 51.8 °F 82% 30.06 in 6.2 mi SW 11.5 mph - N/A   Mostly Cloudy
6:20 PM 57.2 °F 50.0 °F 77% 30.06 in 6.2 mi SW 10.4 mph - N/A   Mostly Cloudy
6:50 PM 57.2 °F 51.8 °F 82% 30.06 in 6.2 mi WSW 8.1 mph - N/A   Mostly Cloudy
7:20 PM 57.2 °F 51.8 °F 82% 30.06 in 6.2 mi SW 8.1 mph - N/A   Scattered Clouds
7:50 PM 57.2 °F 51.8 °F 82% 30.06 in 6.2 mi West 4.6 mph - N/A   Partly Cloudy
8:20 PM 57.2 °F 53.6 °F 88% 30.06 in 6.2 mi SW 10.4 mph - N/A   Scattered Clouds
8:50 PM 57.2 °F 53.6 °F 88% 30.06 in 6.2 mi SW 9.2 mph - N/A   Scattered Clouds
9:20 PM 57.2 °F 53.6 °F 88% 30.06 in 6.2 mi SW 10.4 mph - N/A   Scattered Clouds
9:50 PM 57.2 °F 53.6 °F 88% 30.06 in 6.2 mi SW 9.2 mph - N/A   Scattered Clouds
10:20 PM 55.4 °F 53.6 °F 94% 30.09 in 6.2 mi SSW 8.1 mph - N/A   Scattered Clouds
10:50 PM 57.2 °F 53.6 °F 88% 30.09 in 6.2 mi SSW 8.1 mph - N/A   Mostly Cloudy
11:20 PM 57.2 °F 53.6 °F 88% 30.06 in 6.2 mi SW 8.1 mph - N/A   Overcast
11:50 PM 55.4 °F 53.6 °F 94% 30.06 in 6.2 mi Variable 2.3 mph - N/A   Mostly Cloudy